Reflectivity
16 13 12 14 16 18 17 16 14 14 24 25 19 10 9 11 3 -2 -14 -20 -20 -20 -20 -20 -20 -20 -20 -20 -20 -19 -20 -11 4 14 14 8 6 18 -17 -20 -20 -11 -1 18 20 19 8 -20 -20 -20 -20 -20 -19 -20
17 3 14 6 -10 16 19 16 18 12 18 21 23 15 12 8 14 23 17 -20 -20 8 -18 -20 -20 -20 -20 -20 -20 -20 -20 -19 11 -0 24 29 13 -14 -20 -20 -20 9 -6 8 -18 -20 -20 -20 -20 -20 -20 -20 -20 -20
13 -5 9 15 13 15 16 15 18 14 12 17 29 16 16 15 13 29 30 10 5 33 8 -20 -20 -20 -20 -20 -20 -2 7 -0 -3 6 20 23 22 27 -20 -20 -20 -20 -6 17 17 -4 -20 -20 -20 -20 -20 -20 -20 -20
26 20 29 2 14 10 15 15 14 14 12 10 24 17 16 18 16 27 34 26 3 10 15 -8 -10 -20 -20 -20 -20 -20 -20 -20 1 19 22 15 18 20 15 -20 -20 -20 -20 -20 -20 -20 -20 -20 -20 -8 -6 -20 -20 -20
17 17 17 19 1 15 17 18 18 15 13 11 13 18 20 18 21 30 32 21 9 13 11 -9 -20 -20 -20 -20 -20 -20 -20 -1 10 17 16 14 10 14 22 -20 -20 -20 -20 -20 -20 -20 -20 9 16 22 -7 12 -0 -18
11 20 22 18 21 20 21 26 36 33 15 13 22 38 20 29 37 32 32 36 37 31 27 6 -20 -20 -20 -20 -20 -20 -20 6 14 15 9 21 2 29 6 -20 -20 -20 -20 -20 -20 -20 -20 -20 -7 -0 -20 -20 -20 -13
-4 11 13 14 8 13 16 7 21 21 16 18 24 11 31 36 31 30 22 24 20 21 -2 -20 -20 -0 -3 8 -17 1 4 9 11 25 10 10 9 15 4 -15 -11 -20 -20 -20 -20 -20 -20 -20 -20 -20 -20 -20 6 -20
6 -3 6 -2 -11 -15 -4 12 7 8 21 41 32 33 34 36 37 34 18 -5 -20 3 -20 -14 -1 12 18 24 15 16 12 18 24 27 27 -1 -11 10 -5 6 -9 -20 -20 -20 -20 -20 -20 -20 -20 -20 -20 -20 -20 -20
-15 -13 7 8 10 11 19 26 31 35 36 33 30 24 19 -2 -12 -12 -9 -3 -16 -2 -20 0 -1 -1 34 38 26 26 33 20 16 10 17 13 27 17 11 -6 -20 -20 -20 -20 -20 -20 -20 -20 -20 -20 -20 -20 -20 -20
-20 -20 -20 -20 -20 -20 -20 14 17 12 11 7 2 -8 -7 -6 -17 -20 -20 -13 16 27 -6 -1 -6 -18 17 26 22 22 18 1 -1 -16 20 21 4 16 2 -20 -20 -20 -20 -20 -20 -20 -20 -20 -20 -20 -20 -20 -20 -20
13 13 -12 -20 7 -7 -6 -20 -20 -20 -20 -20 -20 -18 -20 -20 -20 -20 -20 -20 -20 -9 -3 -20 -4 5 10 22 17 16 -4 -10 7 3 -17 2 14 2 -15 -20 -20 -20 -20 -20 -20 -20 -20 -20 -20 -20 -20 -20 -20 -20
-12 33 36 11 -19 4 5 4 -5 -20 -20 -20 -15 -6 7 -20 -20 -20 -17 -14 -6 -2 -20 -17 -19 -20 -9 32 10 -20 -2 -15 -20 -20 -20 -20 -20 -20 -20 -20 -20 -20 -20 -20 -20 -20 -20 -20 -20 -20 -20 -20 -20 -20
-20 -1 17 20 21 24 19 17 21 27 -16 -7 8 -7 9 -4 -2 -20 -19 19 -20 -20 -20 -12 20 19 5 -20 -20 -20 -20 -20 -20 -20 -20 -20 -20 -20 -20 -20 -20 -20 -20 -20 -20 -20 -20 -20 -20 -20 -20 -20 -20 -20
-20 -20 -20 -20 -20 -20 -20 -1 6 15 -6 -2 4 14 -15 -20 -20 -20 -20 -20 -20 -20 -20 -14 -20 -20 -20 -20 -20 -20 -20 -20 -20 -20 -20 -20 -20 -20 -20 -20 -20 -20 -20 -20 -20 -20 -20 -20 -20 -20 -20 -20 -16 -4
-20 -20 -20 -20 -20 -20 -20 -20 -20 -20 -20 -20 -20 -20 -20 -20 -20 -19 -13 -20 -20 -20 -20 -20 -20 -20 -20 -20 -20 -20 -20 -20 -20 -20 -20 -20 -20 -20 -20 -20 -20 -20 -20 -20 -20 -20 -20 -20 -20 -20 -20 -20 0 22
-20 -20 -20 -20 -20 -20 -20 -20 -20 -20 -20 -20 -20 -20 -20 -20 -20 -20 -20 -20 -20 -20 -20 -20 -20 -20 -20 -20 -20 -20 -20 -20 -20 -20 -20 -20 -20 -20 -20 -20 -20 -20 -20 -20 -20 -20 -20 -20 -20 -20 -20 -20 -20 -17
-20 -20 -20 -20 -20 -20 -20 -20 -20 -20 -20 -20 -20 -20 -20 -20 -20 -20 -20 -20 -20 -20 -20 -20 -20 -20 -20 -20 -20 -20 -20 -20 -20 -20 -20 -20 -20 -20 -20 -20 -20 -20 -20 -20 -20 -20 -20 -19 -20 -20 -20 -20 -19 -20
-20 -20 -20 -20 -20 -20 -20 -20 -20 -20 -20 -20 -20 -20 -20 -17 -20 -20 -20 -20 -20 -20 -20 -20 -20 -20 -20 -20 -20 -20 -20 -20 -20 -20 -20 -20 -20 -20 -20 -20 -20 -20 -20 -20 -20 -20 -20 -20 -20 -20 -20 -20 -20 -20
-20 -20 -20 -20 -20 -20 -20 -20 -20 -20 -20 -20 -20 -20 -13 -20 -20 -19 -3 -20 -20 -20 -20 -20 -20 -20 -20 -20 -20 -20 -20 -20 -20 -20 -20 -20 -20 -20 -20 -3 -15 -20 -20 -20 -20 -20 -20 -20 -20 -20 -20 -20 -20 -20
-20 -20 -20 -20 -20 -20 -20 -20 -20 -20 -20 -20 -20 -20 -20 -20 -20 -20 -20 -14 -20 -20 -20 -20 -20 -20 -20 -20 -20 -20 -20 -20 -20 -20 -20 -13 -19 -20 -19 -5 6 -12 -20 -20 -20 -0 -20 -20 -20 -20 -20 -20 -20 -20
-20 -20 -20 -20 -20 -20 -20 -20 -20 -20 -20 -20 -20 -20 -20 -20 -20 -20 -20 -11 -7 -20 -20 -20 -20 -20 -20 -20 -20 -20 -20 -20 -20 -20 -20 -20 -20 -20 -20 -17 7 -20 -20 -18 -20 -15 -6 -20 -20 -20 -20 -20 -20 -20
-20 -20 -20 -20 -20 -20 -20 -14 -20 -20 -20 -1 -3 -14 -20 -20 -20 -20 -20 -6 -17 -20 -17 -20 -20 -20 -20 -20 -20 -20 -17 -19 -20 -20 -20 -20 -20 -20 -20 -20 -20 -20 -20 -20 -20 -20 -20 -20 -20 -20 -20 -20 -20 -20
-20 -20 -20 -20 -20 -20 -20 -20 -20 -20 -20 -12 -20 -20 -20 -20 -20 -7 -12 -20 -13 -4 14 4 0 -16 -20 -20 -20 -20 -18 -20 -20 -20 -20 -20 -20 -20 -20 -20 -20 -20 -20 -20 -20 -20 -20 -20 -20 -20 -20 -20 -20 -20
-20 -20 -20 -20 -20 -20 -20 -20 -20 -20 -20 -20 -20 -20 -20 -18 7 -6 8 6 14 5 6 -2 -1 -19 -20 -14 -10 -20 -20 -20 -20 -20 -20 -20 -20 -20 -20 -20 -20 -19 -18 -18 -20 -20 -20 -20 -20 -20 -20 -20 -20 -20
-20 -20 -20 -20 -20 -20 -20 -20 -20 -20 -20 -20 -20 -20 -20 -20 -20 -19 -16 -18 -13 -18 -20 -20 -20 6 9 -9 6 14 23 2 -20 -20 -20 -20 -20 -20 -20 -20 -20 -19 -17 -20 -20 -20 -20 -20 -20 -19 -19 -20 -20 -20
-20 -20 -17 -19 -20 -20 -20 -20 -20 -20 -20 -20 -20 -20 -20 -20 -20 -20 -19 -1 -20 -20 -20 -20 -20 -20 -14 -4 -20 -20 -20 -20 -20 -20 -20 -20 -20 -20 -20 -20 -20 -20 -20 -20 -20 -20 -20 -20 -20 -20 -17 -18 -20 -20
-12 -8 -20 -20 -20 -20 -20 -20 -20 -20 -20 -20 -20 -20 -20 -20 -20 -10 14 -2 -20 -20 -20 -20 -20 -15 -7 -20 -8 -19 -20 -20 -20 -20 -20 9 -7 -20 -20 -20 -20 -20 -20 -20 -20 -20 -20 -20 -20 -20 -20 -20 -20 -20
14 12 9 -13 -20 -20 -20 -20 -20 -20 6 12 -11 -20 -20 -20 -18 -0 -20 -20 -20 -20 -20 -20 -20 -20 -20 -20 -19 -3 -20 -20 -20 -20 -9 -1 -12 -20 -20 -20 -20 -20 -20 -20 -20 -20 -20 -20 -20 -20 -20 -20 -20 -20
9 4 -19 -2 -3 -15 -20 -11 -6 -17 -19 -18 -17 -20 -20 -20 -20 -20 -20 -20 -20 -20 -20 -20 -20 -20 -20 -20 -20 -10 10 -9 -20 -20 -20 -20 -20 -20 -20 -20 -20 -11 -10 -20 -20 -20 -20 -20 -20 -20 -20 -20 -20 -20
-20 -20 -20 -20 -14 -15 6 8 -16 -20 -15 -17 -12 -20 -20 -20 -20 -20 -20 -20 -20 -20 -20 -20 -20 -20 -20 -20 -18 -16 1 10 -16 -20 -20 -20 -20 -20 -20 -20 -20 -19 -20 -20 -20 -20 -20 -20 -20 -20 -20 -20 -20 -20
-20 -20 -20 -20 -20 -20 -20 -20 -20 -20 -20 -20 -20 -20 -20 -20 -19 -5 -20 -20 -20 -20 -20 -20 -20 -20 -13 -20 -18 -9 9 11 -13 -20 -20 -20 -20 -20 -20 -20 -20 -6 9 10 5 -11 -20 -20 -20 -20 -20 -20 -20 -20
-20 -20 -20 -20 -20 -20 -20 -20 -12 -20 -20 -20 -20 -20 -20 -20 -20 -20 -10 -20 -20 -20 -18 -18 -19 -20 -20 -16 -16 -5 2 -13 -20 -20 -20 -20 -20 -20 -20 -20 -20 -11 6 12 11 4 -5 -20 -20 -20 -20 -20 -20 -20
-20 -20 -20 -20 -20 -20 -20 -20 -20 -20 -20 -20 -20 -20 -20 -20 -9 1 -15 -20 -5 2 -4 -19 -20 -8 -0 -20 -8 -19 -20 -20 -20 -20 -20 -20 -20 -20 -20 -20 -20 -20 -13 -12 -20 -20 -20 -20 -20 -20 -20 -20 -20 -20
Wind_Speed
29 29 30 30 30 30 31 31 30 29 29 31 30 30 29 29 29 18 9 10 10 5 5 7 9 6 4 5 5 2 3 2 4 7 7 7 5 5 4 3 8 11 7 7 8 9 16 9 5 14 8 4 4 3
29 29 30 28 29 29 29 30 29 29 28 28 31 29 29 29 29 26 6 9 9 5 3 4 9 13 15 12 5 4 4 2 1 3 4 7 5 4 6 4 1 6 7 5 6 5 3 4 11 7 3 3 4 2
18 29 27 27 26 27 27 28 27 28 28 27 26 28 29 28 29 26 8 8 8 3 3 4 11 7 8 13 10 6 4 6 3 3 3 3 6 3 6 6 4 6 5 4 0 7 12 14 12 8 5 6 4 3
11 20 23 23 24 23 25 26 27 26 26 26 27 26 28 28 28 26 7 8 9 3 5 6 4 14 15 13 13 14 15 10 6 3 5 4 5 6 4 1 7 3 10 6 6 7 7 9 11 8 6 5 5 3
21 16 18 21 20 21 23 25 26 26 25 24 26 27 26 25 27 13 6 9 10 6 3 3 3 7 8 12 18 17 16 13 8 4 5 8 6 8 3 1 4 6 8 6 6 7 4 5 9 6 5 7 6 7
25 26 20 14 15 16 16 20 16 20 20 20 20 26 23 21 24 6 3 1 5 3 3 2 4 5 5 14 16 15 13 10 9 6 6 7 14 4 5 3 6 12 7 10 8 3 7 7 5 4 6 6 5 7
28 25 22 20 18 17 17 17 17 16 15 16 19 21 17 29 7 4 4 5 17 3 2 4 4 4 5 7 6 6 9 4 4 4 6 8 4 6 2 3 4 4 7 6 5 2 3 2 2 4 2 5 4 3
29 30 28 25 25 23 20 19 15 12 18 23 28 33 29 25 12 4 3 19 11 4 2 3 5 2 3 3 5 5 5 4 5 3 3 4 3 4 5 6 4 2 1 3 4 3 3 2 3 4 3 2 3 4
28 27 26 25 24 23 25 27 29 30 31 30 30 22 7 5 3 3 18 12 3 1 3 3 2 4 2 1 2 3 3 3 2 3 2 1 2 4 6 4 3 3 1 3 5 5 5 3 5 4 1 1 3 5
24 25 24 22 23 25 25 25 25 26 29 26 6 5 3 0 19 11 4 3 2 3 3 3 2 3 1 2 2 2 2 2 3 3 1 2 4 6 3 3 5 5 6 3 3 4 4 6 6 6 7 6 7 6
19 19 18 18 20 22 22 24 23 20 11 4 4 4 0 11 3 2 3 2 3 4 5 5 7 6 3 4 2 1 2 2 1 0 1 2 3 2 4 4 4 4 6 6 7 10 10 7 5 5 5 5 5 6
15 19 16 14 13 16 17 17 11 4 2 5 6 5 3 2 1 3 4 4 6 5 4 3 4 3 3 2 1 1 2 3 1 1 1 2 3 1 3 7 12 13 14 15 11 7 6 6 6 5 2 2 3 4
14 14 12 12 10 8 13 15 14 8 10 2 2 5 4 3 4 7 7 3 3 3 3 4 3 2 3 2 3 1 3 1 0 2 2 3 3 4 7 7 8 8 10 6 5 5 7 5 4 5 7 7 6 6
11 11 11 9 13 9 3 13 21 14 1 3 4 3 3 3 4 4 2 2 1 1 3 3 2 1 1 4 2 4 1 3 2 3 4 2 2 1 2 3 4 5 6 5 9 7 7 8 10 10 9 5 7 7
14 10 8 7 14 14 9 5 14 3 3 3 3 4 4 1 1 2 1 2 2 2 2 3 3 1 1 4 2 4 3 2 3 4 3 1 2 2 3 3 5 4 2 3 6 6 7 8 10 10 7 7 8 9
18 7 6 17 20 19 6 5 3 2 2 2 3 3 0 1 3 1 2 2 2 1 0 0 2 3 1 4 3 4 6 5 4 3 2 3 3 2 2 3 2 4 5 8 6 6 7 6 9 9 8 9 8 8
10 1 14 18 19 16 9 3 2 3 3 3 1 3 3 1 2 2 2 1 0 1 1 1 3 2 3 1 1 4 5 3 3 2 2 4 6 6 5 5 5 2 6 6 6 7 8 6 6 7 10 8 10 9
2 5 16 16 13 4 4 3 3 2 2 2 2 2 1 3 3 1 0 1 0 2 1 1 2 3 4 4 3 3 4 2 3 3 4 5 5 6 7 7 5 4 6 7 7 6 5 5 7 7 8 8 9 9
7 10 16 15 5 1 2 3 2 1 1 1 1 1 1 0 1 1 2 2 1 1 3 2 3 3 3 4 4 2 3 4 4 4 4 5 6 7 7 6 6 7 7 7 7 5 4 5 5 5 5 5 6 5
14 10 9 4 5 2 1 2 1 1 1 1 1 2 2 1 1 0 1 2 1 2 3 3 4 3 3 2 3 2 2 5 5 4 2 2 3 6 7 6 4 5 5 5 5 5 5 5 4 4 4 5 6 5
7 4 7 1 2 3 2 2 2 1 0 1 1 3 1 2 2 3 3 3 2 2 2 3 3 4 3 2 1 2 2 4 4 2 3 4 3 4 6 6 6 4 4 4 4 4 4 4 5 4 5 4 4 5
3 7 2 3 3 2 2 2 2 3 1 1 0 1 0 1 1 2 3 3 2 2 1 1 2 2 2 3 2 2 1 3 3 3 4 6 6 5 5 5 6 5 5 5 5 5 4 4 5 5 5 4 5 6
5 1 2 2 2 3 2 2 1 1 1 2 1 0 0 1 1 2 1 2 1 1 2 2 3 3 3 2 1 2 3 6 5 4 4 4 4 4 5 6 5 6 6 4 4 4 4 6 7 6 6 6 6 6
5 4 4 2 3 1 2 2 1 1 2 2 2 3 2 2 2 1 1 3 3 3 6 8 4 3 1 1 0 1 1 2 3 2 4 5 4 4 4 5 6 5 4 5 5 5 5 5 7 7 7 7 7 7
5 6 4 5 3 3 4 4 5 3 1 1 3 3 3 3 3 3 3 2 4 4 4 5 5 5 4 2 1 1 1 1 2 2 2 2 3 4 3 3 4 4 5 6 6 6 6 5 6 7 8 8 8 8
6 4 4 3 3 2 2 3 3 3 1 4 1 2 3 2 3 1 1 2 2 1 2 3 5 5 4 3 2 1 1 1 2 1 1 3 3 4 5 5 5 3 4 4 7 8 7 6 7 8 7 7 6 7
6 5 3 2 2 2 3 2 1 2 2 1 3 4 3 3 3 2 0 2 2 3 2 1 2 4 5 6 2 0 1 2 2 1 2 2 1 1 3 5 5 3 6 6 6 8 9 8 8 7 7 5 5 6
6 8 7 6 3 3 2 2 3 3 2 1 2 3 1 5 3 2 2 2 3 4 4 3 3 3 4 4 1 3 3 4 5 4 4 5 4 4 3 2 3 7 5 5 6 7 7 7 8 8 7 7 5 3
5 13 6 5 3 3 3 4 4 3 2 1 1 2 3 3 1 4 4 4 5 4 4 4 3 4 4 3 1 1 3 5 5 4 3 2 1 2 2 2 3 3 4 5 6 6 8 7 7 7 7 6 6 5
5 9 5 4 4 3 1 2 3 3 2 2 3 3 2 3 2 2 4 5 5 5 4 4 4 3 4 4 1 1 1 0 0 2 3 3 3 3 2 3 3 4 4 6 7 9 10 9 9 6 7 6 6 5
6 4 5 4 4 2 6 4 3 1 1 1 1 2 2 2 2 2 5 5 5 4 4 5 4 3 3 4 1 2 2 2 4 5 4 3 4 4 3 3 2 3 5 6 7 7 8 7 7 9 9 8 7 7
4 3 5 4 7 9 9 4 4 2 3 2 1 1 2 1 2 4 6 8 8 8 9 8 6 5 6 2 1 2 3 4 3 3 4 4 4 5 4 4 4 4 6 6 6 7 8 8 8 9 10 11 10 10
4 5 3 3 4 6 5 5 4 4 2 2 1 0 1 2 5 4 5 7 5 7 8 7 6 6 5 2 4 4 5 5 6 7 7 8 8 6 4 4 4 4 7 6 5 6 8 11 10 12 12 12 12 12
Wind_Direction
239 230 223 220 216 214 209 208 206 207 206 202 204 203 203 201 198 183 189 187 187 215 225 208 194 183 171 175 208 203 339 183 253 216 239 235 233 221 244 196 188 189 193 203 213 224 256 165 147 208 222 198 200 184
235 227 216 209 206 206 205 201 202 200 204 201 201 203 201 200 198 190 199 178 191 202 270 215 227 228 226 221 174 199 232 263 236 323 355 335 229 177 179 213 168 220 221 199 215 223 303 307 294 233 195 215 207 194
240 204 197 198 195 195 197 195 197 195 197 198 198 198 199 200 202 198 181 157 168 203 252 238 226 215 213 215 208 228 205 209 205 119 295 315 308 300 186 216 175 225 163 185 159 250 266 280 254 247 217 231 232 202
96 162 168 180 183 185 186 188 189 190 191 194 197 199 199 201 201 197 175 163 176 134 227 251 225 231 229 212 205 210 238 248 265 188 213 264 273 254 263 231 202 176 153 178 246 277 292 263 249 243 231 248 219 160
66 109 143 159 166 175 180 182 185 184 186 191 195 198 197 201 199 189 148 180 176 167 171 247 293 216 192 195 213 216 223 224 227 250 246 240 235 249 238 250 213 190 174 187 225 208 177 270 296 248 198 231 199 164
62 71 85 104 149 152 165 147 149 172 177 183 197 190 198 195 130 111 119 301 151 78 71 277 279 227 205 207 211 210 208 211 208 211 215 218 236 250 235 220 232 206 205 212 239 180 209 244 294 238 230 234 194 184
60 68 83 96 106 120 137 153 162 166 173 184 190 175 159 135 126 110 157 170 171 155 138 278 262 172 229 239 171 184 190 186 198 215 223 231 232 200 245 218 265 205 234 234 252 356 284 228 272 9 292 36 77 41
66 68 71 81 85 83 92 102 108 136 131 115 105 111 118 114 102 79 32 136 137 119 157 259 265 287 91 184 170 169 163 173 199 233 247 205 143 214 235 230 228 235 260 300 297 254 277 358 6 37 62 106 153 191
62 66 73 83 91 96 102 104 103 103 104 110 112 98 68 32 61 85 102 88 34 115 199 218 265 287 30 251 129 144 155 167 160 235 246 195 212 201 222 198 229 199 168 301 316 307 296 262 280 278 253 145 213 223
66 65 65 73 83 89 92 96 105 113 116 117 74 58 68 282 125 122 37 94 192 198 233 247 213 248 302 246 60 119 180 162 206 190 213 222 248 270 263 238 268 293 278 265 284 287 248 250 229 243 231 224 226 227
62 68 85 79 90 99 106 112 111 105 68 41 65 64 182 152 62 72 131 185 191 230 208 232 217 224 161 263 128 244 139 71 285 27 313 308 260 291 1 357 2 326 322 304 266 262 248 237 242 244 264 252 225 197
53 63 62 92 117 114 130 127 126 63 94 110 106 93 129 175 137 135 190 177 209 234 190 208 187 183 147 215 136 171 141 176 209 186 212 255 251 232 2 354 353 355 351 340 346 295 253 246 268 245 254 277 241 142
20 23 35 45 58 145 177 167 161 142 112 81 103 146 202 168 169 188 198 172 213 202 192 180 175 157 149 200 91 140 67 352 234 6 282 252 321 27 15 357 344 352 353 342 17 34 56 59 43 42 57 40 71 91
356 354 0 5 7 15 55 181 194 190 168 176 150 169 187 191 236 198 200 193 215 237 192 166 112 176 74 63 70 87 93 203 164 209 239 261 298 276 22 7 341 1 358 359 49 47 57 60 53 44 44 52 85 58
354 348 346 357 359 358 358 143 167 169 142 184 129 201 202 103 97 41 356 287 209 230 173 120 100 115 102 109 113 129 148 162 249 235 238 204 153 96 61 47 19 9 294 78 77 74 67 69 78 73 58 70 80 87
343 354 16 353 352 352 25 118 127 132 80 117 108 124 294 61 291 276 213 214 189 186 139 97 127 74 73 126 145 193 142 206 240 217 215 158 157 116 127 114 169 210 129 93 85 85 82 72 84 89 78 68 68 78
340 11 352 348 342 335 356 91 89 65 131 133 143 131 164 158 201 240 251 316 87 119 140 116 98 172 102 52 197 176 205 220 214 236 219 182 179 180 171 157 189 184 98 89 91 91 92 88 88 90 87 83 86 85
266 316 328 326 337 340 355 42 93 119 116 146 161 192 180 166 164 200 164 296 329 104 127 110 103 183 194 183 217 225 219 195 212 232 226 195 179 172 164 165 162 124 105 95 94 98 94 91 97 99 106 106 99 96
286 295 298 301 291 333 31 342 44 119 214 149 103 153 214 304 203 152 175 213 224 130 125 157 208 212 217 209 211 202 207 201 176 176 190 192 164 158 129 124 122 122 121 120 128 125 112 109 122 124 124 121 109 106
309 306 312 292 159 95 352 321 53 128 164 179 128 180 207 210 181 256 193 171 164 170 176 225 228 227 214 239 208 202 202 168 156 148 164 146 153 140 137 142 139 138 127 134 131 137 132 122 122 131 131 131 126 124
330 317 338 39 60 67 90 358 325 31 12 221 157 180 194 173 188 190 184 170 200 226 235 226 230 248 225 247 203 220 172 164 186 178 163 157 161 144 153 148 138 141 147 157 159 158 157 153 151 149 146 140 128 120
268 333 5 3 74 59 101 65 315 311 288 320 277 185 170 218 218 195 137 183 232 247 238 277 281 302 259 237 202 179 218 159 137 118 94 121 155 170 177 169 158 172 180 178 173 171 165 151 152 149 141 135 131 129
315 34 31 19 97 38 263 4 350 351 355 324 333 30 282 243 251 141 225 191 183 326 297 292 300 295 276 277 136 133 174 170 169 167 164 167 165 163 165 179 182 178 180 179 174 161 159 152 153 149 139 142 142 134
19 40 35 40 55 332 356 351 263 23 24 21 17 334 358 332 329 248 202 70 21 3 15 2 353 339 346 64 109 113 106 163 142 157 173 165 173 183 173 179 183 184 177 158 165 159 157 158 150 153 153 157 162 159
61 342 65 354 336 10 23 2 350 34 7 342 29 340 347 336 15 24 33 52 12 8 354 350 3 3 353 351 1 105 68 136 139 169 193 187 131 127 151 164 174 172 156 150 161 161 163 159 163 164 162 165 170 172
62 334 57 344 328 39 4 17 15 353 11 1 336 334 5 65 59 306 111 200 258 301 327 5 352 345 341 332 313 265 229 139 133 138 202 190 182 164 163 162 160 167 182 160 152 161 161 162 161 158 156 156 156 158
45 352 347 4 327 323 45 17 16 58 21 334 319 2 40 42 285 269 265 221 242 237 228 256 316 319 312 310 306 313 97 93 79 84 54 83 110 148 164 168 177 181 160 160 156 158 160 160 158 155 151 146 168 165
44 357 335 330 5 360 87 32 28 358 316 7 319 2 185 192 238 235 227 328 324 323 304 312 302 278 307 309 289 139 101 99 94 98 97 68 50 46 66 99 82 128 137 146 147 143 149 150 151 153 157 157 150 149
21 351 339 346 4 37 37 32 12 318 301 301 184 253 260 221 330 4 353 333 328 337 335 339 340 340 331 345 21 145 158 155 142 140 122 121 103 62 26 85 119 135 139 126 109 127 138 138 141 143 139 132 132 135
319 340 309 351 345 24 275 250 253 275 255 251 285 300 321 16 46 276 358 2 7 357 324 291 287 326 333 337 347 84 45 66 107 138 165 184 193 142 138 113 113 142 136 124 115 107 99 101 104 98 112 121 127 122
288 316 324 350 295 282 331 307 276 284 281 316 3 294 299 333 312 342 12 349 328 330 342 350 345 337 322 337 300 169 114 36 87 83 83 101 120 137 138 127 122 131 132 134 136 134 132 132 129 127 127 126 121 120
302 284 1 302 299 304 322 344 296 335 344 350 240 334 288 233 58 24 7 355 4 360 348 346 349 343 339 322 333 33 77 112 95 81 100 110 112 110 106 101 99 102 103 106 113 125 133 133 133 130 128 124 120 117
301 299 271 294 301 331 324 349 307 311 314 290 291 145 95 70 77 11 329 4 352 340 334 331 326 328 347 32 73 89 79 90 98 89 81 79 83 86 90 89 89 104 112 112 115 128 128 127 122 122 120 119 117 115